Time,TemperatureF,DewpointF,PressureIn,WindDirection,WindDirectionDegrees,WindSpeedMPH,WindSpeedGustMPH,Humidity,HourlyPrecipIn,Conditions,Clouds,dailyrainin,SoftwareType,DateUTC
2013-03-16 00:03:00,71.1,61.5,29.95,WSW,258,1.0,7.0,72,0.00,,,0.00,meteohub,2013-03-16 10:03:00,
2013-03-16 00:08:00,71.1,62.4,29.96,WSW,248,3.0,4.0,74,0.00,,,0.00,meteohub,2013-03-16 10:08:00,
2013-03-16 00:14:00,71.1,62.4,29.95,SE,143,1.0,4.0,74,0.00,,,0.00,meteohub,2013-03-16 10:14:00,
2013-03-16 00:19:00,70.9,62.2,29.95,ESE,122,1.0,4.0,74,0.00,,,0.00,meteohub,2013-03-16 10:19:00,
2013-03-16 00:24:00,70.9,62.6,29.94,ESE,122,2.0,4.0,75,0.00,,,0.00,meteohub,2013-03-16 10:24:00,
2013-03-16 00:29:00,70.7,62.4,29.94,SE,131,0.0,2.0,75,0.00,,,0.00,meteohub,2013-03-16 10:29:00,
2013-03-16 00:35:00,70.5,62.2,29.94,ESE,123,0.0,2.0,75,0.00,,,0.00,meteohub,2013-03-16 10:35:00,
2013-03-16 00:40:00,70.3,62.1,29.94,ESE,121,0.0,2.0,75,0.00,,,0.00,meteohub,2013-03-16 10:40:00,
2013-03-16 00:45:00,70.3,62.1,29.94,ESE,112,1.0,1.0,75,0.00,,,0.00,meteohub,2013-03-16 10:45:00,
2013-03-16 00:50:00,70.2,61.5,29.94,ESE,103,1.0,1.0,74,0.00,,,0.00,meteohub,2013-03-16 10:50:00,
2013-03-16 00:55:00,70.0,61.7,29.94,East,92,1.0,2.0,75,0.00,,,0.00,meteohub,2013-03-16 10:55:00,
2013-03-16 01:01:00,70.0,61.3,29.93,East,87,0.0,2.0,74,0.00,,,0.00,meteohub,2013-03-16 11:01:00,
2013-03-16 01:07:00,69.6,61.0,29.93,East,86,0.0,2.0,74,0.00,,,0.00,meteohub,2013-03-16 11:07:00,
2013-03-16 01:12:00,69.6,61.0,29.93,ENE,71,1.0,1.0,74,0.00,,,0.00,meteohub,2013-03-16 11:12:00,
2013-03-16 01:17:00,69.6,61.3,29.93,East,79,1.0,2.0,75,0.00,,,0.00,meteohub,2013-03-16 11:17:00,
2013-03-16 01:22:00,69.6,61.3,29.93,East,79,0.0,2.0,75,0.00,,,0.00,meteohub,2013-03-16 11:22:00,
2013-03-16 01:27:00,69.6,61.3,29.93,East,81,2.0,2.0,75,0.00,,,0.00,meteohub,2013-03-16 11:27:00,
2013-03-16 01:32:00,69.6,61.3,29.93,ENE,77,0.0,2.0,75,0.00,,,0.00,meteohub,2013-03-16 11:32:00,
2013-03-16 01:38:00,69.8,61.5,29.93,NE,48,0.0,2.0,75,0.00,,,0.00,meteohub,2013-03-16 11:38:00,
2013-03-16 01:43:00,69.8,61.9,29.93,NE,49,0.0,2.0,76,0.00,,,0.00,meteohub,2013-03-16 11:43:00,
2013-03-16 01:48:00,69.8,61.9,29.93,NE,40,0.0,2.0,76,0.00,,,0.00,meteohub,2013-03-16 11:48:00,
2013-03-16 01:53:00,69.8,61.9,29.93,NE,48,0.0,2.0,76,0.00,,,0.00,meteohub,2013-03-16 11:53:00,
2013-03-16 01:58:00,70.0,62.1,29.93,NNW,335,0.0,2.0,76,0.00,,,0.00,meteohub,2013-03-16 11:58:00,
2013-03-16 02:03:00,70.0,62.1,29.92,ENE,68,2.0,2.0,76,0.00,,,0.00,meteohub,2013-03-16 12:03:00,
2013-03-16 02:09:00,70.0,62.1,29.92,East,80,0.0,2.0,76,0.00,,,0.00,meteohub,2013-03-16 12:09:00,
2013-03-16 02:14:00,70.0,62.1,29.93,ENE,60,0.0,2.0,76,0.00,,,0.00,meteohub,2013-03-16 12:14:00,
2013-03-16 02:19:00,70.2,62.2,29.92,NE,40,1.0,2.0,76,0.00,,,0.00,meteohub,2013-03-16 12:19:00,
2013-03-16 02:24:00,70.2,62.2,29.92,NE,49,0.0,2.0,76,0.00,,,0.00,meteohub,2013-03-16 12:24:00,
2013-03-16 02:29:00,70.2,62.2,29.92,NE,50,0.0,2.0,76,0.00,,,0.00,meteohub,2013-03-16 12:29:00,
2013-03-16 02:35:00,70.2,62.2,29.91,North,359,1.0,2.0,76,0.00,,,0.00,meteohub,2013-03-16 12:35:00,
2013-03-16 02:40:00,70.2,62.2,29.91,ENE,58,1.0,2.0,76,0.00,,,0.00,meteohub,2013-03-16 12:40:00,
2013-03-16 02:45:00,70.2,62.2,29.91,ENE,71,0.0,3.0,76,0.00,,,0.00,meteohub,2013-03-16 12:45:00,
2013-03-16 02:50:00,70.0,62.1,29.91,ENE,77,1.0,3.0,76,0.00,,,0.00,meteohub,2013-03-16 12:50:00,
2013-03-16 02:55:00,70.0,62.1,29.91,East,98,0.0,3.0,76,0.00,,,0.00,meteohub,2013-03-16 12:55:00,
2013-03-16 03:01:00,70.0,62.4,29.91,ENE,60,0.0,3.0,77,0.00,,,0.00,meteohub,2013-03-16 13:01:00,
2013-03-16 03:06:00,69.8,62.2,29.92,ENE,60,0.0,2.0,77,0.00,,,0.00,meteohub,2013-03-16 13:06:00,
2013-03-16 03:11:00,69.8,62.2,29.92,ENE,61,0.0,2.0,77,0.00,,,0.00,meteohub,2013-03-16 13:11:00,
2013-03-16 03:17:00,69.8,62.2,29.91,East,87,0.0,1.0,77,0.00,,,0.00,meteohub,2013-03-16 13:17:00,
2013-03-16 03:22:00,69.6,62.1,29.91,ESE,107,1.0,1.0,77,0.00,,,0.00,meteohub,2013-03-16 13:22:00,
2013-03-16 03:27:00,69.4,61.9,29.91,East,98,2.0,2.0,77,0.00,,,0.00,meteohub,2013-03-16 13:27:00,
2013-03-16 03:32:00,69.4,61.9,29.91,ENE,77,1.0,3.0,77,0.00,,,0.00,meteohub,2013-03-16 13:32:00,
2013-03-16 03:37:00,69.6,62.1,29.91,East,88,1.0,4.0,77,0.00,,,0.00,meteohub,2013-03-16 13:37:00,
2013-03-16 03:42:00,69.6,62.1,29.91,East,80,0.0,4.0,77,0.00,,,0.00,meteohub,2013-03-16 13:42:00,
2013-03-16 03:47:00,69.6,61.7,29.91,ESE,117,0.0,3.0,76,0.00,,,0.00,meteohub,2013-03-16 13:47:00,
2013-03-16 03:52:00,69.6,62.1,29.91,East,100,2.0,2.0,77,0.00,,,0.00,meteohub,2013-03-16 13:52:00,
2013-03-16 03:58:00,69.6,62.1,29.90,East,80,1.0,2.0,77,0.00,,,0.00,meteohub,2013-03-16 13:58:00,
2013-03-16 04:03:00,69.6,62.1,29.91,NW,315,4.0,4.0,77,0.00,,,0.00,meteohub,2013-03-16 14:03:00,
2013-03-16 04:08:00,69.8,62.6,29.91,NW,310,1.0,7.0,78,0.00,,,0.00,meteohub,2013-03-16 14:08:00,
2013-03-16 04:13:00,69.8,62.6,29.91,NW,315,0.0,7.0,78,0.00,,,0.00,meteohub,2013-03-16 14:13:00,
2013-03-16 04:19:00,69.8,62.6,29.91,NW,316,0.0,7.0,78,0.00,,,0.00,meteohub,2013-03-16 14:19:00,
2013-03-16 04:24:00,69.8,63.0,29.91,WNW,302,3.0,5.0,79,0.00,,,0.00,meteohub,2013-03-16 14:24:00,
2013-03-16 04:29:00,69.8,63.0,29.91,WNW,300,2.0,5.0,79,0.00,,,0.00,meteohub,2013-03-16 14:29:00,
2013-03-16 04:34:00,69.8,63.0,29.91,NW,315,5.0,5.0,79,0.00,,,0.00,meteohub,2013-03-16 14:34:00,
2013-03-16 04:39:00,70.0,63.1,29.91,NW,308,3.0,5.0,79,0.00,,,0.00,meteohub,2013-03-16 14:39:00,
2013-03-16 04:44:00,70.0,63.1,29.91,NW,309,5.0,5.0,79,0.00,,,0.00,meteohub,2013-03-16 14:44:00,
2013-03-16 04:50:00,70.0,63.1,29.91,NW,319,2.0,7.0,79,0.00,,,0.00,meteohub,2013-03-16 14:50:00,
2013-03-16 04:55:00,69.8,62.6,29.90,NNE,21,0.0,7.0,78,0.00,,,0.00,meteohub,2013-03-16 14:55:00,
2013-03-16 05:00:00,69.6,62.4,29.91,NE,46,1.0,6.0,78,0.00,,,0.00,meteohub,2013-03-16 15:00:00,
2013-03-16 05:05:00,69.6,62.4,29.91,NE,46,0.0,3.0,78,0.00,,,0.00,meteohub,2013-03-16 15:05:00,
2013-03-16 05:10:00,69.6,62.4,29.90,NE,46,0.0,3.0,78,0.00,,,0.00,meteohub,2013-03-16 15:10:00,
2013-03-16 05:16:00,69.4,62.2,29.91,NE,45,0.0,1.0,78,0.00,,,0.00,meteohub,2013-03-16 15:16:00,
2013-03-16 05:21:00,69.4,62.6,29.91,WNW,300,1.0,1.0,79,0.00,,,0.00,meteohub,2013-03-16 15:21:00,
2013-03-16 05:26:00,69.4,62.6,29.91,NW,308,1.0,2.0,79,0.00,,,0.00,meteohub,2013-03-16 15:26:00,
2013-03-16 05:32:00,69.3,62.4,29.92,NW,308,1.0,2.0,79,0.00,,,0.00,meteohub,2013-03-16 15:32:00,
2013-03-16 05:37:00,69.3,62.8,29.93,NW,320,4.0,4.0,80,0.00,,,0.00,meteohub,2013-03-16 15:37:00,
2013-03-16 05:42:00,68.9,62.8,29.92,NNE,20,3.0,10.0,81,0.00,,,0.00,meteohub,2013-03-16 15:42:00,
2013-03-16 05:47:00,68.7,62.6,29.92,NE,37,1.0,10.0,81,0.00,,,0.00,meteohub,2013-03-16 15:47:00,
2013-03-16 05:52:00,68.5,62.8,29.92,NE,51,2.0,7.0,82,0.00,,,0.00,meteohub,2013-03-16 15:52:00,
2013-03-16 05:57:00,68.4,62.6,29.92,NE,54,0.0,5.0,82,0.00,,,0.00,meteohub,2013-03-16 15:57:00,
2013-03-16 06:02:00,68.4,62.6,29.92,NE,54,0.0,5.0,82,0.00,,,0.00,meteohub,2013-03-16 16:02:00,
2013-03-16 06:07:00,68.2,62.4,29.92,NE,53,0.0,4.0,82,0.00,,,0.00,meteohub,2013-03-16 16:07:00,
2013-03-16 06:12:00,68.2,62.8,29.93,WNW,288,4.0,4.0,83,0.00,,,0.00,meteohub,2013-03-16 16:12:00,
2013-03-16 06:18:00,68.2,62.8,29.93,WNW,302,0.0,4.0,83,0.00,,,0.00,meteohub,2013-03-16 16:18:00,
2013-03-16 06:23:00,68.2,63.1,29.93,WNW,293,1.0,4.0,84,0.00,,,0.00,meteohub,2013-03-16 16:23:00,
2013-03-16 06:28:00,67.8,62.8,29.94,NW,325,3.0,4.0,84,0.00,,,0.00,meteohub,2013-03-16 16:28:00,
2013-03-16 06:33:00,67.6,63.0,29.94,NW,316,6.0,6.0,85,0.01,,,0.01,meteohub,2013-03-16 16:33:00,
2013-03-16 06:38:00,67.3,63.3,29.94,NW,325,2.0,9.0,87,0.01,,,0.01,meteohub,2013-03-16 16:38:00,
2013-03-16 06:43:00,66.9,63.0,29.95,NNE,13,3.0,9.0,87,0.01,,,0.01,meteohub,2013-03-16 16:43:00,
2013-03-16 06:49:00,66.6,63.0,29.96,North,352,3.0,9.0,88,0.01,,,0.01,meteohub,2013-03-16 16:49:00,
2013-03-16 06:54:00,66.4,63.0,29.96,North,6,3.0,8.0,89,0.01,,,0.01,meteohub,2013-03-16 16:54:00,
2013-03-16 06:59:00,66.0,62.6,29.96,NE,41,3.0,8.0,89,0.01,,,0.01,meteohub,2013-03-16 16:59:00,
2013-03-16 07:05:00,65.8,62.4,29.96,NE,53,4.0,8.0,89,0.01,,,0.01,meteohub,2013-03-16 17:05:00,
2013-03-16 07:10:00,65.7,62.6,29.97,NE,47,4.0,7.0,90,0.01,,,0.01,meteohub,2013-03-16 17:10:00,
2013-03-16 07:15:00,65.7,62.6,29.96,ENE,77,4.0,7.0,90,0.01,,,0.01,meteohub,2013-03-16 17:15:00,
2013-03-16 07:20:00,65.5,62.4,29.97,NE,40,3.0,9.0,90,0.01,,,0.01,meteohub,2013-03-16 17:20:00,
2013-03-16 07:26:00,65.5,62.4,29.96,NE,49,6.0,9.0,90,0.00,,,0.01,meteohub,2013-03-16 17:26:00,
2013-03-16 07:31:00,65.5,62.4,29.96,NNE,24,2.0,8.0,90,0.00,,,0.01,meteohub,2013-03-16 17:31:00,
2013-03-16 07:36:00,65.7,62.6,29.96,NE,48,2.0,7.0,90,0.00,,,0.01,meteohub,2013-03-16 17:36:00,
2013-03-16 07:41:00,65.7,62.6,29.97,ENE,77,0.0,11.0,90,0.00,,,0.01,meteohub,2013-03-16 17:41:00,
2013-03-16 07:46:00,65.8,62.8,29.97,NE,41,3.0,11.0,90,0.00,,,0.01,meteohub,2013-03-16 17:46:00,
2013-03-16 07:52:00,65.8,62.4,29.97,NE,47,1.0,11.0,89,0.00,,,0.01,meteohub,2013-03-16 17:52:00,
2013-03-16 07:57:00,66.0,62.6,29.98,ENE,60,0.0,7.0,89,0.00,,,0.01,meteohub,2013-03-16 17:57:00,
2013-03-16 08:02:00,66.4,62.8,29.97,ENE,59,1.0,7.0,88,0.00,,,0.01,meteohub,2013-03-16 18:02:00,
2013-03-16 08:07:00,66.6,62.6,29.98,East,99,2.0,7.0,87,0.00,,,0.01,meteohub,2013-03-16 18:07:00,
2013-03-16 08:12:00,66.9,62.6,29.98,NE,48,2.0,7.0,86,0.00,,,0.01,meteohub,2013-03-16 18:12:00,
2013-03-16 08:17:00,67.3,63.0,29.98,ENE,77,0.0,5.0,86,0.00,,,0.01,meteohub,2013-03-16 18:17:00,
2013-03-16 08:22:00,67.8,62.8,29.98,NE,49,3.0,3.0,84,0.00,,,0.01,meteohub,2013-03-16 18:22:00,
2013-03-16 08:28:00,68.2,63.1,29.98,NNE,27,2.0,3.0,84,0.00,,,0.01,meteohub,2013-03-16 18:28:00,
2013-03-16 08:33:00,68.4,62.2,29.98,NNE,30,1.0,4.0,81,0.00,,,0.01,meteohub,2013-03-16 18:33:00,
2013-03-16 08:38:00,68.7,62.2,29.99,NW,316,0.0,5.0,80,0.00,,,0.01,meteohub,2013-03-16 18:38:00,
2013-03-16 08:43:00,69.3,63.1,29.98,NNE,33,1.0,5.0,81,0.00,,,0.01,meteohub,2013-03-16 18:43:00,
2013-03-16 08:48:00,69.3,62.8,29.98,North,353,5.0,6.0,80,0.00,,,0.01,meteohub,2013-03-16 18:48:00,
2013-03-16 08:54:00,69.3,63.1,29.99,NE,34,3.0,8.0,81,0.00,,,0.01,meteohub,2013-03-16 18:54:00,
2013-03-16 08:59:00,69.3,62.8,29.99,NNE,27,6.0,8.0,80,0.00,,,0.01,meteohub,2013-03-16 18:59:00,
2013-03-16 09:05:00,69.1,62.2,29.99,North,11,3.0,9.0,79,0.00,,,0.01,meteohub,2013-03-16 19:05:00,
2013-03-16 09:10:00,69.3,62.8,29.99,NNW,346,5.0,10.0,80,0.00,,,0.01,meteohub,2013-03-16 19:10:00,
2013-03-16 09:15:00,69.4,63.0,29.99,NNW,338,3.0,10.0,80,0.00,,,0.01,meteohub,2013-03-16 19:15:00,
2013-03-16 09:20:00,69.6,63.1,29.99,NNW,345,4.0,9.0,80,0.00,,,0.01,meteohub,2013-03-16 19:20:00,
2013-03-16 09:25:00,69.4,62.6,29.99,ENE,60,10.0,10.0,79,0.00,,,0.01,meteohub,2013-03-16 19:25:00,
2013-03-16 09:31:00,69.1,62.2,29.99,NNW,347,4.0,12.0,79,0.00,,,0.01,meteohub,2013-03-16 19:31:00,
2013-03-16 09:36:00,69.1,62.2,29.99,ENE,75,2.0,13.0,79,0.00,,,0.01,meteohub,2013-03-16 19:36:00,
2013-03-16 09:41:00,69.3,62.4,29.99,North,359,6.0,13.0,79,0.00,,,0.01,meteohub,2013-03-16 19:41:00,
2013-03-16 09:47:00,69.3,62.4,30.00,ENE,77,7.0,13.0,79,0.00,,,0.01,meteohub,2013-03-16 19:47:00,
2013-03-16 09:52:00,69.6,62.4,30.00,NE,49,9.0,10.0,78,0.00,,,0.01,meteohub,2013-03-16 19:52:00,
2013-03-16 09:57:00,69.4,61.9,29.99,NE,50,3.0,14.0,77,0.00,,,0.01,meteohub,2013-03-16 19:57:00,
2013-03-16 10:03:00,69.6,61.7,29.99,NW,323,4.0,14.0,76,0.00,,,0.01,meteohub,2013-03-16 20:03:00,
2013-03-16 10:08:00,70.0,62.1,29.99,NE,36,8.0,14.0,76,0.00,,,0.01,meteohub,2013-03-16 20:08:00,
2013-03-16 10:13:00,70.2,62.2,29.99,NE,48,7.0,14.0,76,0.00,,,0.01,meteohub,2013-03-16 20:13:00,
2013-03-16 10:18:00,70.5,62.2,29.99,North,11,8.0,14.0,75,0.00,,,0.01,meteohub,2013-03-16 20:18:00,
2013-03-16 10:23:00,70.5,61.9,29.99,NNW,333,2.0,13.0,74,0.00,,,0.01,meteohub,2013-03-16 20:23:00,
2013-03-16 10:29:00,71.1,61.9,29.99,North,4,6.0,13.0,73,0.00,,,0.01,meteohub,2013-03-16 20:29:00,
2013-03-16 10:34:00,71.1,61.9,29.99,NNW,330,5.0,13.0,73,0.00,,,0.01,meteohub,2013-03-16 20:34:00,
2013-03-16 10:39:00,71.2,61.7,29.98,NNE,29,10.0,13.0,72,0.00,,,0.01,meteohub,2013-03-16 20:39:00,
2013-03-16 10:44:00,71.2,61.7,29.98,NE,51,10.0,13.0,72,0.00,,,0.01,meteohub,2013-03-16 20:44:00,
2013-03-16 10:49:00,71.4,61.9,29.98,North,354,7.0,13.0,72,0.00,,,0.01,meteohub,2013-03-16 20:49:00,
2013-03-16 10:54:00,72.0,61.7,29.98,NNE,13,8.0,13.0,70,0.00,,,0.01,meteohub,2013-03-16 20:54:00,
2013-03-16 11:00:00,72.0,61.7,29.97,NE,51,7.0,13.0,70,0.00,,,0.01,meteohub,2013-03-16 21:00:00,
2013-03-16 11:05:00,72.0,61.7,29.97,North,356,3.0,13.0,70,0.00,,,0.01,meteohub,2013-03-16 21:05:00,
2013-03-16 11:10:00,72.3,62.1,29.97,NNE,24,6.0,13.0,70,0.00,,,0.01,meteohub,2013-03-16 21:10:00,
2013-03-16 11:15:00,72.7,61.9,29.97,NNE,13,6.0,12.0,69,0.00,,,0.01,meteohub,2013-03-16 21:15:00,
2013-03-16 11:20:00,73.4,63.0,29.97,NNW,336,2.0,12.0,70,0.00,,,0.01,meteohub,2013-03-16 21:20:00,
2013-03-16 11:26:00,73.9,61.9,29.96,NE,36,6.0,12.0,66,0.00,,,0.01,meteohub,2013-03-16 21:26:00,
2013-03-16 11:31:00,73.8,61.3,29.96,NW,308,4.0,11.0,65,0.00,,,0.01,meteohub,2013-03-16 21:31:00,
2013-03-16 11:37:00,73.9,61.3,29.96,NE,40,3.0,11.0,65,0.00,,,0.01,meteohub,2013-03-16 21:37:00,
2013-03-16 11:42:00,74.3,61.3,29.96,West,280,3.0,11.0,64,0.00,,,0.01,meteohub,2013-03-16 21:42:00,
2013-03-16 11:47:00,74.8,61.9,29.96,NW,307,3.0,11.0,64,0.00,,,0.01,meteohub,2013-03-16 21:47:00,
2013-03-16 11:52:00,74.8,61.0,29.96,NE,46,6.0,11.0,62,0.00,,,0.01,meteohub,2013-03-16 21:52:00,
2013-03-16 11:57:00,75.0,61.5,29.96,North,356,6.0,14.0,63,0.00,,,0.01,meteohub,2013-03-16 21:57:00,
2013-03-16 12:02:00,75.6,62.6,29.95,NNE,32,8.0,14.0,64,0.00,,,0.01,meteohub,2013-03-16 22:02:00,
2013-03-16 12:07:00,75.6,60.6,29.96,NW,321,5.0,14.0,60,0.00,,,0.01,meteohub,2013-03-16 22:07:00,
2013-03-16 12:13:00,75.7,62.2,29.95,West,260,9.0,12.0,63,0.00,,,0.01,meteohub,2013-03-16 22:13:00,
2013-03-16 12:18:00,75.7,61.9,29.95,NNW,344,6.0,12.0,62,0.00,,,0.01,meteohub,2013-03-16 22:18:00,
2013-03-16 12:23:00,75.6,61.2,29.94,ENE,65,2.0,12.0,61,0.00,,,0.01,meteohub,2013-03-16 22:23:00,
2013-03-16 12:28:00,75.6,61.2,29.95,NW,318,9.0,14.0,61,0.00,,,0.01,meteohub,2013-03-16 22:28:00,
2013-03-16 12:33:00,74.7,60.3,29.95,NNW,340,8.0,14.0,61,0.00,,,0.01,meteohub,2013-03-16 22:33:00,
2013-03-16 12:39:00,74.5,59.7,29.94,NNW,339,2.0,13.0,60,0.00,,,0.01,meteohub,2013-03-16 22:39:00,
2013-03-16 12:44:00,74.1,59.7,29.94,North,351,9.0,13.0,61,0.00,,,0.01,meteohub,2013-03-16 22:44:00,
2013-03-16 12:49:00,74.1,59.7,29.94,North,356,3.0,13.0,61,0.00,,,0.01,meteohub,2013-03-16 22:49:00,
2013-03-16 12:54:00,74.1,59.7,29.94,NNW,330,3.0,16.0,61,0.00,,,0.01,meteohub,2013-03-16 22:54:00,
2013-03-16 12:59:00,74.5,59.7,29.94,NNW,328,5.0,16.0,60,0.00,,,0.01,meteohub,2013-03-16 22:59:00,
2013-03-16 13:04:00,74.1,58.8,29.94,NNW,328,5.0,16.0,59,0.00,,,0.01,meteohub,2013-03-16 23:04:00,
2013-03-16 13:10:00,73.8,58.5,29.94,NW,311,2.0,12.0,59,0.00,,,0.01,meteohub,2013-03-16 23:10:00,
2013-03-16 13:15:00,73.8,58.5,29.93,NNE,29,4.0,12.0,59,0.00,,,0.01,meteohub,2013-03-16 23:15:00,
2013-03-16 13:20:00,73.6,58.3,29.94,NNW,333,6.0,12.0,59,0.00,,,0.01,meteohub,2013-03-16 23:20:00,
2013-03-16 13:25:00,73.4,58.3,29.93,NNE,29,5.0,9.0,59,0.00,,,0.01,meteohub,2013-03-16 23:25:00,
2013-03-16 13:31:00,73.6,58.3,29.93,NNW,339,3.0,12.0,59,0.00,,,0.01,meteohub,2013-03-16 23:31:00,
2013-03-16 13:36:00,73.8,58.5,29.92,NNW,327,4.0,13.0,59,0.00,,,0.01,meteohub,2013-03-16 23:36:00,
2013-03-16 13:41:00,74.1,59.4,29.92,NW,323,5.0,13.0,60,0.00,,,0.01,meteohub,2013-03-16 23:41:00,
2013-03-16 13:46:00,74.5,59.2,29.92,NNE,27,6.0,13.0,59,0.00,,,0.01,meteohub,2013-03-16 23:46:00,
2013-03-16 13:51:00,74.7,58.5,29.91,NNE,23,6.0,14.0,57,0.00,,,0.01,meteohub,2013-03-16 23:51:00,
2013-03-16 13:57:00,74.5,58.3,29.91,NE,56,3.0,14.0,57,0.00,,,0.01,meteohub,2013-03-16 23:57:00,
2013-03-16 14:02:00,74.5,58.3,29.92,NNW,329,3.0,15.0,57,0.00,,,0.01,meteohub,2013-03-17 00:02:00,
2013-03-16 14:07:00,74.3,58.6,29.91,NNE,21,7.0,15.0,58,0.00,,,0.00,meteohub,2013-03-17 00:07:00,
2013-03-16 14:12:00,74.3,58.1,29.91,North,349,12.0,15.0,57,0.00,,,0.00,meteohub,2013-03-17 00:12:00,
2013-03-16 14:17:00,74.7,57.9,29.91,NNW,335,8.0,17.0,56,0.00,,,0.00,meteohub,2013-03-17 00:17:00,
2013-03-16 14:22:00,75.0,58.8,29.91,NNW,331,4.0,17.0,57,0.00,,,0.00,meteohub,2013-03-17 00:22:00,
2013-03-16 14:27:00,75.6,59.2,29.92,NW,310,5.0,18.0,57,0.00,,,0.00,meteohub,2013-03-17 00:27:00,
2013-03-16 14:32:00,74.8,58.6,29.92,NW,307,5.0,20.0,57,0.00,,,0.00,meteohub,2013-03-17 00:32:00,
2013-03-16 14:37:00,75.4,59.0,29.92,North,8,5.0,20.0,57,0.00,,,0.00,meteohub,2013-03-17 00:37:00,
2013-03-16 14:42:00,75.7,57.9,29.91,NW,319,5.0,20.0,54,0.00,,,0.00,meteohub,2013-03-17 00:42:00,
2013-03-16 14:48:00,75.4,57.6,29.91,NW,321,9.0,13.0,54,0.00,,,0.00,meteohub,2013-03-17 00:48:00,
2013-03-16 14:53:00,74.8,57.0,29.90,NNW,339,4.0,15.0,54,0.00,,,0.00,meteohub,2013-03-17 00:53:00,
2013-03-16 14:58:00,74.5,57.2,29.91,NNW,339,7.0,15.0,55,0.00,,,0.00,meteohub,2013-03-17 00:58:00,
2013-03-16 15:04:00,74.5,57.2,29.90,North,349,7.0,16.0,55,0.00,,,0.00,meteohub,2013-03-17 01:04:00,
2013-03-16 15:09:00,74.7,57.9,29.90,NNW,340,3.0,16.0,56,0.00,,,0.00,meteohub,2013-03-17 01:09:00,
2013-03-16 15:14:00,74.8,57.0,29.90,North,1,7.0,16.0,54,0.00,,,0.00,meteohub,2013-03-17 01:14:00,
2013-03-16 15:19:00,74.8,57.6,29.90,NE,37,6.0,14.0,55,0.00,,,0.00,meteohub,2013-03-17 01:19:00,
2013-03-16 15:25:00,74.8,57.6,29.90,NNW,332,6.0,14.0,55,0.00,,,0.00,meteohub,2013-03-17 01:25:00,
2013-03-16 15:30:00,74.8,58.1,29.90,NNE,29,6.0,14.0,56,0.00,,,0.00,meteohub,2013-03-17 01:30:00,
2013-03-16 15:35:00,74.8,57.6,29.91,NNW,347,5.0,15.0,55,0.00,,,0.00,meteohub,2013-03-17 01:35:00,
2013-03-16 15:40:00,73.9,57.2,29.90,NNW,343,7.0,15.0,56,0.00,,,0.00,meteohub,2013-03-17 01:40:00,
2013-03-16 15:46:00,73.6,57.4,29.90,WNW,287,4.0,16.0,57,0.00,,,0.00,meteohub,2013-03-17 01:46:00,
2013-03-16 15:51:00,73.6,57.4,29.91,NW,316,10.0,16.0,57,0.00,,,0.00,meteohub,2013-03-17 01:51:00,
2013-03-16 15:56:00,73.8,58.1,29.91,NNW,335,4.0,15.0,58,0.00,,,0.00,meteohub,2013-03-17 01:56:00,
2013-03-16 16:01:00,73.9,58.3,29.91,WNW,302,6.0,15.0,58,0.00,,,0.00,meteohub,2013-03-17 02:01:00,
2013-03-16 16:06:00,73.9,58.6,29.90,NNW,347,7.0,17.0,59,0.00,,,0.00,meteohub,2013-03-17 02:06:00,
2013-03-16 16:12:00,73.8,57.6,29.91,NE,38,8.0,19.0,57,0.00,,,0.00,meteohub,2013-03-17 02:12:00,
2013-03-16 16:17:00,73.8,57.0,29.91,NE,39,6.0,19.0,56,0.00,,,0.00,meteohub,2013-03-17 02:17:00,
2013-03-16 16:22:00,73.2,56.7,29.91,NNE,17,4.0,19.0,56,0.00,,,0.00,meteohub,2013-03-17 02:22:00,
2013-03-16 16:27:00,73.0,56.5,29.90,NNW,338,4.0,19.0,56,0.00,,,0.00,meteohub,2013-03-17 02:27:00,
2013-03-16 16:32:00,72.9,55.2,29.90,NNE,30,7.0,19.0,54,0.00,,,0.00,meteohub,2013-03-17 02:32:00,
2013-03-16 16:37:00,72.7,56.5,29.90,NNW,345,7.0,19.0,57,0.00,,,0.00,meteohub,2013-03-17 02:37:00,
2013-03-16 16:43:00,72.1,56.1,29.90,NNE,23,4.0,16.0,57,0.00,,,0.00,meteohub,2013-03-17 02:43:00,
2013-03-16 16:48:00,72.1,56.5,29.91,NW,306,7.0,16.0,58,0.00,,,0.00,meteohub,2013-03-17 02:48:00,
2013-03-16 16:53:00,72.5,56.8,29.91,NE,41,6.0,16.0,58,0.00,,,0.00,meteohub,2013-03-17 02:53:00,
2013-03-16 16:58:00,72.3,57.7,29.91,NNW,330,4.0,14.0,60,0.00,,,0.00,meteohub,2013-03-17 02:58:00,
2013-03-16 17:03:00,72.1,57.0,29.91,ENE,63,9.0,15.0,59,0.00,,,0.00,meteohub,2013-03-17 03:03:00,
2013-03-16 17:08:00,72.0,57.7,29.92,NE,42,5.0,15.0,61,0.00,,,0.00,meteohub,2013-03-17 03:08:00,
2013-03-16 17:14:00,71.8,57.6,29.92,NNE,30,7.0,15.0,61,0.00,,,0.00,meteohub,2013-03-17 03:14:00,
2013-03-16 17:19:00,71.6,57.9,29.92,NE,34,6.0,13.0,62,0.00,,,0.00,meteohub,2013-03-17 03:19:00,
2013-03-16 17:24:00,71.4,58.1,29.92,North,356,3.0,13.0,63,0.00,,,0.00,meteohub,2013-03-17 03:24:00,
2013-03-16 17:29:00,71.2,58.8,29.92,West,281,9.0,14.0,65,0.00,,,0.00,meteohub,2013-03-17 03:29:00,
2013-03-16 17:34:00,71.2,58.5,29.93,NNW,331,3.0,15.0,64,0.00,,,0.00,meteohub,2013-03-17 03:34:00,
2013-03-16 17:40:00,71.2,58.8,29.93,NNW,327,5.0,15.0,65,0.00,,,0.00,meteohub,2013-03-17 03:40:00,
2013-03-16 17:45:00,71.1,58.6,29.93,NW,317,4.0,15.0,65,0.00,,,0.00,meteohub,2013-03-17 03:45:00,
2013-03-16 17:50:00,70.9,59.0,29.93,North,1,8.0,12.0,66,0.00,,,0.00,meteohub,2013-03-17 03:50:00,
2013-03-16 17:55:00,70.9,59.0,29.93,North,352,5.0,12.0,66,0.00,,,0.00,meteohub,2013-03-17 03:55:00,
2013-03-16 18:00:00,70.5,58.6,29.92,NNW,340,6.0,12.0,66,0.00,,,0.00,meteohub,2013-03-17 04:00:00,
2013-03-16 18:02:00,70.5,59.0,29.93,North,352,6.0,12.0,67,0.00,,,0.00,meteohub,2013-03-17 04:02:00,
2013-03-16 18:03:00,70.5,59.0,29.93,NNW,328,4.0,12.0,67,0.00,,,0.00,meteohub,2013-03-17 04:03:00,
2013-03-16 18:08:00,70.3,58.5,29.92,NNE,32,10.0,14.0,66,0.00,,,0.00,meteohub,2013-03-17 04:08:00,
2013-03-16 18:13:00,70.2,58.6,29.92,ENE,58,7.0,15.0,67,0.00,,,0.00,meteohub,2013-03-17 04:13:00,
2013-03-16 18:18:00,70.2,59.2,29.92,NNE,26,5.0,15.0,68,0.00,,,0.00,meteohub,2013-03-17 04:18:00,
2013-03-16 18:23:00,70.0,59.0,29.92,NNE,16,4.0,15.0,68,0.00,,,0.00,meteohub,2013-03-17 04:23:00,
2013-03-16 18:28:00,69.8,59.2,29.93,North,356,3.0,17.0,69,0.00,,,0.00,meteohub,2013-03-17 04:28:00,
2013-03-16 18:33:00,69.6,58.6,29.93,NW,311,3.0,17.0,68,0.00,,,0.00,meteohub,2013-03-17 04:33:00,
2013-03-16 18:38:00,69.4,58.5,29.94,WNW,302,2.0,17.0,68,0.00,,,0.00,meteohub,2013-03-17 04:38:00,
2013-03-16 18:43:00,69.4,58.5,29.95,NNW,341,9.0,11.0,68,0.00,,,0.00,meteohub,2013-03-17 04:43:00,
2013-03-16 18:48:00,69.4,58.5,29.95,NE,37,7.0,11.0,68,0.00,,,0.00,meteohub,2013-03-17 04:48:00,
2013-03-16 18:54:00,69.3,58.3,29.95,NE,42,6.0,13.0,68,0.00,,,0.00,meteohub,2013-03-17 04:54:00,
2013-03-16 18:59:00,69.3,58.3,29.95,NE,43,4.0,13.0,68,0.00,,,0.00,meteohub,2013-03-17 04:59:00,
2013-03-16 19:04:00,69.3,58.3,29.96,NNE,27,4.0,13.0,68,0.00,,,0.00,meteohub,2013-03-17 05:04:00,
2013-03-16 19:09:00,69.3,58.3,29.96,NE,35,9.0,12.0,68,0.00,,,0.00,meteohub,2013-03-17 05:09:00,
2013-03-16 19:15:00,69.3,58.3,29.96,NNW,339,1.0,11.0,68,0.00,,,0.00,meteohub,2013-03-17 05:15:00,
2013-03-16 19:20:00,69.3,58.3,29.96,North,354,6.0,11.0,68,0.00,,,0.00,meteohub,2013-03-17 05:20:00,
2013-03-16 19:25:00,69.3,58.3,29.96,NE,41,3.0,11.0,68,0.00,,,0.00,meteohub,2013-03-17 05:25:00,
2013-03-16 19:30:00,69.3,58.3,29.96,NE,50,6.0,10.0,68,0.00,,,0.00,meteohub,2013-03-17 05:30:00,
2013-03-16 19:35:00,69.3,58.3,29.97,NE,51,5.0,11.0,68,0.00,,,0.00,meteohub,2013-03-17 05:35:00,
2013-03-16 19:40:00,69.3,58.3,29.97,NNW,331,2.0,14.0,68,0.00,,,0.00,meteohub,2013-03-17 05:40:00,
2013-03-16 19:45:00,69.3,58.3,29.97,NE,40,3.0,14.0,68,0.00,,,0.00,meteohub,2013-03-17 05:45:00,
2013-03-16 19:50:00,69.3,58.3,29.98,NNW,340,4.0,14.0,68,0.00,,,0.00,meteohub,2013-03-17 05:50:00,
2013-03-16 19:56:00,69.3,58.3,29.98,NE,51,2.0,10.0,68,0.00,,,0.00,meteohub,2013-03-17 05:56:00,
2013-03-16 20:01:00,69.1,58.1,29.98,North,351,5.0,10.0,68,0.00,,,0.00,meteohub,2013-03-17 06:01:00,
2013-03-16 20:06:00,69.1,58.1,29.98,NNE,30,3.0,10.0,68,0.00,,,0.00,meteohub,2013-03-17 06:06:00,
2013-03-16 20:11:00,69.1,57.7,29.98,NNE,30,4.0,7.0,67,0.00,,,0.00,meteohub,2013-03-17 06:11:00,
2013-03-16 20:16:00,69.1,57.7,29.98,NNE,23,5.0,9.0,67,0.00,,,0.00,meteohub,2013-03-17 06:16:00,
2013-03-16 20:22:00,68.9,57.0,29.98,NE,41,4.0,9.0,66,0.00,,,0.00,meteohub,2013-03-17 06:22:00,
2013-03-16 20:27:00,69.1,56.8,29.99,ENE,63,2.0,9.0,65,0.00,,,0.00,meteohub,2013-03-17 06:27:00,
2013-03-16 20:32:00,69.1,56.8,29.99,ENE,61,2.0,10.0,65,0.00,,,0.00,meteohub,2013-03-17 06:32:00,
2013-03-16 20:37:00,68.9,57.0,29.99,ENE,65,1.0,10.0,66,0.00,,,0.00,meteohub,2013-03-17 06:37:00,
2013-03-16 20:42:00,68.7,56.5,29.99,NNE,30,5.0,10.0,65,0.00,,,0.00,meteohub,2013-03-17 06:42:00,
2013-03-16 20:47:00,68.7,56.5,29.99,North,6,3.0,9.0,65,0.00,,,0.00,meteohub,2013-03-17 06:47:00,
2013-03-16 20:52:00,68.7,56.5,30.00,NNE,30,6.0,10.0,65,0.00,,,0.00,meteohub,2013-03-17 06:52:00,
2013-03-16 20:57:00,68.5,56.3,30.00,NE,40,2.0,10.0,65,0.00,,,0.00,meteohub,2013-03-17 06:57:00,
2013-03-16 21:02:00,68.5,56.3,30.00,NE,44,3.0,10.0,65,0.00,,,0.00,meteohub,2013-03-17 07:02:00,
2013-03-16 21:07:00,68.5,56.3,30.01,NE,41,4.0,9.0,65,0.00,,,0.00,meteohub,2013-03-17 07:07:00,
2013-03-16 21:12:00,68.5,56.3,30.01,NE,48,4.0,9.0,65,0.00,,,0.00,meteohub,2013-03-17 07:12:00,
2013-03-16 21:18:00,68.5,56.3,30.01,ENE,58,5.0,8.0,65,0.00,,,0.00,meteohub,2013-03-17 07:18:00,
2013-03-16 21:23:00,68.5,56.3,30.01,NE,50,7.0,11.0,65,0.00,,,0.00,meteohub,2013-03-17 07:23:00,
2013-03-16 21:28:00,68.5,56.3,30.01,NE,44,5.0,11.0,65,0.00,,,0.00,meteohub,2013-03-17 07:28:00,
2013-03-16 21:34:00,68.5,56.3,30.00,NE,51,5.0,11.0,65,0.00,,,0.00,meteohub,2013-03-17 07:34:00,
2013-03-16 21:39:00,68.5,56.3,30.00,NE,54,5.0,11.0,65,0.00,,,0.00,meteohub,2013-03-17 07:39:00,
2013-03-16 21:44:00,68.5,56.3,30.01,NE,51,4.0,11.0,65,0.00,,,0.00,meteohub,2013-03-17 07:44:00,
2013-03-16 21:49:00,68.5,56.3,30.01,NE,53,2.0,11.0,65,0.00,,,0.00,meteohub,2013-03-17 07:49:00,
2013-03-16 21:55:00,68.5,56.3,30.01,NNE,25,2.0,8.0,65,0.00,,,0.00,meteohub,2013-03-17 07:55:00,
2013-03-16 22:00:00,68.5,56.3,30.01,North,355,2.0,9.0,65,0.00,,,0.00,meteohub,2013-03-17 08:00:00,
2013-03-16 22:05:00,68.5,56.7,30.01,NE,47,3.0,9.0,66,0.00,,,0.00,meteohub,2013-03-17 08:05:00,
2013-03-16 22:10:00,68.4,56.5,30.01,ENE,59,5.0,8.0,66,0.00,,,0.00,meteohub,2013-03-17 08:10:00,
2013-03-16 22:15:00,68.4,56.5,30.01,NE,50,5.0,8.0,66,0.00,,,0.00,meteohub,2013-03-17 08:15:00,
2013-03-16 22:21:00,68.4,56.5,30.01,ENE,59,5.0,8.0,66,0.00,,,0.00,meteohub,2013-03-17 08:21:00,
2013-03-16 22:26:00,68.5,56.3,30.01,NE,56,7.0,8.0,65,0.00,,,0.00,meteohub,2013-03-17 08:26:00,
2013-03-16 22:31:00,68.5,56.3,30.01,NE,50,4.0,10.0,65,0.00,,,0.00,meteohub,2013-03-17 08:31:00,
2013-03-16 22:36:00,68.5,56.3,30.01,NE,51,2.0,10.0,65,0.00,,,0.00,meteohub,2013-03-17 08:36:00,
2013-03-16 22:42:00,68.5,56.3,30.01,NNE,32,6.0,10.0,65,0.00,,,0.00,meteohub,2013-03-17 08:42:00,
2013-03-16 22:47:00,68.5,55.9,30.00,WNW,294,6.0,8.0,64,0.00,,,0.00,meteohub,2013-03-17 08:47:00,
2013-03-16 22:52:00,68.5,55.9,30.00,NNE,26,3.0,8.0,64,0.00,,,0.00,meteohub,2013-03-17 08:52:00,
2013-03-16 22:57:00,68.5,55.9,30.00,ENE,68,4.0,9.0,64,0.00,,,0.00,meteohub,2013-03-17 08:57:00,
2013-03-16 23:02:00,68.5,55.9,30.00,NE,53,2.0,9.0,64,0.00,,,0.00,meteohub,2013-03-17 09:02:00,
2013-03-16 23:07:00,68.4,55.8,30.00,ENE,57,2.0,7.0,64,0.00,,,0.00,meteohub,2013-03-17 09:07:00,
2013-03-16 23:12:00,68.4,55.8,30.00,NNW,338,3.0,7.0,64,0.00,,,0.00,meteohub,2013-03-17 09:12:00,
2013-03-16 23:17:00,68.4,55.8,29.99,NE,36,3.0,9.0,64,0.00,,,0.00,meteohub,2013-03-17 09:17:00,
2013-03-16 23:22:00,68.4,55.8,29.99,NE,46,9.0,9.0,64,0.00,,,0.00,meteohub,2013-03-17 09:22:00,
2013-03-16 23:26:00,68.2,55.6,29.98,NE,51,5.0,9.0,64,0.00,,,0.00,meteohub,2013-03-17 09:26:00,
2013-03-16 23:32:00,68.2,55.6,29.99,ENE,58,3.0,11.0,64,0.00,,,0.00,meteohub,2013-03-17 09:32:00,
2013-03-16 23:37:00,68.2,55.0,29.98,WNW,302,2.0,11.0,63,0.00,,,0.00,meteohub,2013-03-17 09:37:00,
2013-03-16 23:42:00,68.2,55.0,29.99,NE,48,5.0,11.0,63,0.00,,,0.00,meteohub,2013-03-17 09:42:00,
2013-03-16 23:47:00,68.2,55.0,29.98,NE,37,9.0,9.0,63,0.00,,,0.00,meteohub,2013-03-17 09:47:00,
2013-03-16 23:52:00,68.2,55.0,29.98,ENE,61,4.0,9.0,63,0.00,,,0.00,meteohub,2013-03-17 09:52:00,
2013-03-16 23:57:00,68.2,55.0,29.97,NNW,346,2.0,11.0,63,0.00,,,0.00,meteohub,2013-03-17 09:57:00,